| time (UTC) | temp C | wind direction | speed KPH | gust KPH | rain 1hr cm | rain 24hr cm | rain mn cm | humidity % | barometer mb |
| 20260906023017 | 28 | 288 | 0.0 | 4.8 | 0.00 | 0.00 | 0.00 | 83 | 1012.5 |
| 20260906021517 | 28 | 314 | 1.6 | 6.4 | 0.00 | 0.00 | 0.00 | 83 | 1012.2 |
| 20260906020015 | 28 | 281 | 0.0 | 6.4 | 0.00 | 0.00 | 0.00 | 83 | 1012.3 |
| 20260906014517 | 28 | 338 | 1.6 | 8.0 | 0.00 | 0.00 | 0.00 | 83 | 1012.2 |
| 20260906013019 | 28 | 347 | 0.0 | 4.8 | 0.00 | 0.00 | 0.00 | 82 | 1012.1 |
| 20260906011513 | 28 | 306 | 1.6 | 8.0 | 0.00 | 0.00 | 0.00 | 81 | 1012.0 |
| 20260906010013 | 28 | 311 | 1.6 | 8.0 | 0.00 | 0.00 | 0.00 | 82 | 1012.0 |
| 20260906004513 | 28 | 245 | 1.6 | 6.4 | 0.00 | 0.00 | 0.00 | 82 | 1012.1 |
| 20260906003012 | 28 | 216 | 1.6 | 11.3 | 0.00 | 0.00 | 0.00 | 82 | 1011.8 |
| 20260906001517 | 28 | 281 | 1.6 | 6.4 | 0.00 | 0.00 | 0.00 | 82 | 1011.9 |
| 20260906000032 | 29 | 336 | 0.0 | 6.4 | 0.00 | 0.00 | 0.00 | 81 | 1012.0 |
| 20260905234509 | 29 | 264 | 1.6 | 14.5 | 0.00 | 0.00 | 0.00 | 79 | 1012.0 |
| 20260905233009 | 29 | 235 | 0.0 | 8.0 | 0.00 | 0.00 | 0.00 | 79 | 1011.8 |
| 20260905231508 | 30 | 234 | 1.6 | 11.3 | 0.00 | 0.00 | 0.00 | 78 | 1011.9 |
| 20260905230007 | 31 | 289 | 3.2 | 8.0 | 0.00 | 0.00 | 0.00 | 74 | 1012.0 |
| 20260905224507 | 31 | 214 | 4.8 | 12.9 | 0.00 | 0.00 | 0.00 | 74 | 1012.0 |
| 20260905223008 | 31 | 252 | 1.6 | 16.1 | 0.00 | 0.00 | 0.00 | 74 | 1011.9 |
| 20260905221504 | 31 | 220 | 4.8 | 11.3 | 0.00 | 0.00 | 0.00 | 75 | 1012.1 |
| 20260905220003 | 31 | 200 | 1.6 | 12.9 | 0.00 | 0.00 | 0.00 | 76 | 1012.1 |
| 20260905214501 | 31 | 309 | 3.2 | 11.3 | 0.00 | 0.00 | 0.00 | 75 | 1012.2 |
| 20260905213001 | 31 | 284 | 3.2 | 12.9 | 0.00 | 0.00 | 0.00 | 74 | 1012.4 |
| 20260905211601 | 31 | 248 | 3.2 | 11.3 | 0.00 | 0.00 | 0.00 | 76 | 1012.4 |
| 20260905210118 | 31 | 179 | 3.2 | 11.3 | 0.00 | 0.00 | 0.00 | 75 | 1012.4 |
| 20260905204602 | 31 | 345 | 4.8 | 14.5 | 0.00 | 0.00 | 0.00 | 75 | 1012.3 |
| 20260905203057 | 31 | 209 | 4.8 | 12.9 | 0.00 | 0.00 | 0.00 | 76 | 1012.4 |
| 20260905201556 | 31 | 290 | 3.2 | 16.1 | 0.00 | 0.00 | 0.00 | 76 | 1012.4 |
| 20260905200055 | 31 | 276 | 4.8 | 12.9 | 0.00 | 0.00 | 0.00 | 75 | 1012.6 |
| 20260905194607 | 31 | 257 | 8.0 | 19.3 | 0.00 | 0.00 | 0.00 | 76 | 1012.9 |
| 20260905193050 | 30 | 203 | 3.2 | 11.3 | 0.00 | 0.00 | 0.00 | 77 | 1013.2 |
| 20260905191556 | 31 | 281 | 4.8 | 12.9 | 0.00 | 0.00 | 0.00 | 76 | 1013.5 |
| 20260905190050 | 31 | 304 | 4.8 | 14.5 | 0.00 | 0.00 | 0.00 | 76 | 1013.4 |
| 20260905184609 | 31 | 296 | 4.8 | 12.9 | 0.00 | 0.00 | 0.00 | 77 | 1013.6 |
| 20260905183052 | 31 | 226 | 3.2 | 16.1 | 0.00 | 0.00 | 0.00 | 77 | 1013.9 |
| 20260905181556 | 31 | 234 | 1.6 | 16.1 | 0.00 | 0.00 | 0.00 | 75 | 1014.1 |
| 20260905180050 | 30 | 304 | 6.4 | 12.9 | 0.00 | 0.00 | 0.00 | 78 | 1014.1 |
| 20260905174544 | 30 | 206 | 4.8 | 12.9 | 0.00 | 0.08 | 0.00 | 78 | 1014.3 |
| 20260905173043 | 30 | 208 | 4.8 | 12.9 | 0.00 | 0.08 | 0.00 | 78 | 1014.3 |
| 20260905171544 | 30 | 198 | 4.8 | 12.9 | 0.00 | 0.08 | 0.00 | 77 | 1014.3 |
| 20260905170041 | 30 | 260 | 4.8 | 12.9 | 0.00 | 0.08 | 0.00 | 77 | 1014.5 |
| 20260905164539 | 30 | 190 | 3.2 | 14.5 | 0.00 | 0.13 | 0.00 | 80 | 1014.6 |
| 20260905163038 | 30 | 229 | 4.8 | 14.5 | 0.00 | 0.13 | 0.00 | 82 | 1014.6 |
| 20260905161538 | 30 | 226 | 6.4 | 11.3 | 0.00 | 0.13 | 0.00 | 80 | 1014.8 |
| 20260905160036 | 30 | 281 | 1.6 | 9.7 | 0.00 | 0.13 | 0.00 | 80 | 1014.8 |
| 20260905154549 | 30 | 316 | 1.6 | 9.7 | 0.00 | 0.13 | 0.00 | 81 | 1014.5 |
| 20260905153032 | 30 | 302 | 1.6 | 8.0 | 0.00 | 0.13 | 0.00 | 79 | 1014.6 |
| 20260905151531 | 30 | 248 | 4.8 | 11.3 | 0.00 | 0.13 | 0.00 | 80 | 1014.4 |
| 20260905150027 | 29 | 295 | 0.0 | 4.8 | 0.00 | 0.13 | 0.00 | 81 | 1014.5 |
| 20260905144533 | 29 | 352 | 0.0 | 4.8 | 0.00 | 0.13 | 0.00 | 82 | 1014.6 |
| 20260905143022 | 28 | 295 | 0.0 | 4.8 | 0.00 | 0.13 | 0.00 | 83 | 1014.7 |
| 20260905141526 | 28 | 23 | 1.6 | 8.0 | 0.00 | 0.13 | 0.00 | 83 | 1014.6 |
| 20260905140017 | 28 | 355 | 0.0 | 4.8 | 0.00 | 0.13 | 0.00 | 85 | 1014.5 |
| 20260905134517 | 28 | 357 | 1.6 | 4.8 | 0.00 | 0.13 | 0.00 | 86 | 1014.4 |
| 20260905133022 | 27 | 349 | 0.0 | 3.2 | 0.00 | 0.13 | 0.00 | 88 | 1014.4 |
| 20260905131512 | 27 | 19 | 0.0 | 0.0 | 0.00 | 0.13 | 0.00 | 89 | 1014.3 |
| 20260905130014 | 27 | 16 | 0.0 | 1.6 | 0.00 | 0.13 | 0.00 | 90 | 1014.3 |
| 20260905124510 | 26 | 23 | 0.0 | 1.6 | 0.00 | 0.13 | 0.00 | 92 | 1014.1 |
| 20260905123008 | 26 | 53 | 0.0 | 1.6 | 0.00 | 0.13 | 0.00 | 92 | 1014.1 |
| 20260905121507 | 25 | 37 | 0.0 | 0.0 | 0.00 | 0.13 | 0.00 | 92 | 1014.0 |
| 20260905120005 | 25 | 37 | 0.0 | 0.0 | 0.00 | 0.13 | 0.00 | 92 | 1013.9 |
| 20260905114505 | 25 | 37 | 0.0 | 0.0 | 0.00 | 0.13 | 0.00 | 92 | 1013.7 |
| 20260905113004 | 25 | 37 | 0.0 | 0.0 | 0.00 | 0.13 | 0.00 | 92 | 1013.7 |
| 20260905111502 | 26 | 37 | 0.0 | 0.0 | 0.00 | 0.13 | 0.00 | 92 | 1013.6 |
| 20260905110100 | 26 | 20 | 0.0 | 1.6 | 0.00 | 0.13 | 0.00 | 92 | 1013.5 |
| 20260905104605 | 26 | 32 | 0.0 | 1.6 | 0.00 | 0.13 | 0.00 | 91 | 1013.5 |
| 20260905103056 | 26 | 25 | 0.0 | 1.6 | 0.00 | 0.13 | 0.00 | 89 | 1013.4 |
| 20260905101600 | 27 | 290 | 0.0 | 1.6 | 0.00 | 0.13 | 0.00 | 87 | 1013.3 |
| 20260905100052 | 27 | 264 | 0.0 | 1.6 | 0.00 | 0.13 | 0.00 | 87 | 1013.2 |
| 20260905094550 | 27 | 264 | 0.0 | 1.6 | 0.00 | 0.13 | 0.00 | 86 | 1013.2 |
| 20260905093050 | 27 | 226 | 0.0 | 3.2 | 0.00 | 0.13 | 0.00 | 86 | 1013.2 |
| 20260905091550 | 27 | 220 | 0.0 | 1.6 | 0.00 | 0.13 | 0.00 | 86 | 1013.3 |
| 20260905090047 | 27 | 317 | 0.0 | 1.6 | 0.00 | 0.13 | 0.00 | 86 | 1013.2 |
| 20260905084550 | 27 | 244 | 0.0 | 0.0 | 0.00 | 0.13 | 0.00 | 86 | 1013.3 |
| 20260905083046 | 28 | 201 | 1.6 | 6.4 | 0.00 | 0.13 | 0.00 | 85 | 1013.1 |
| 20260905081545 | 28 | 215 | 0.0 | 3.2 | 0.00 | 0.13 | 0.00 | 85 | 1013.0 |
| 20260905080050 | 27 | 233 | 1.6 | 4.8 | 0.00 | 0.13 | 0.00 | 85 | 1013.0 |
| 20260905074545 | 27 | 205 | 0.0 | 6.4 | 0.00 | 0.13 | 0.00 | 86 | 1013.1 |
| 20260905073046 | 27 | 223 | 0.0 | 3.2 | 0.00 | 0.13 | 0.00 | 87 | 1013.2 |
| 20260905071540 | 27 | 217 | 0.0 | 1.6 | 0.00 | 0.13 | 0.00 | 87 | 1013.0 |
| 20260905070039 | 27 | 219 | 1.6 | 4.8 | 0.00 | 0.13 | 0.00 | 86 | 1013.0 |
| 20260905064538 | 27 | 221 | 1.6 | 4.8 | 0.00 | 0.13 | 0.00 | 86 | 1012.9 |
| 20260905063037 | 27 | 202 | 3.2 | 8.0 | 0.00 | 0.13 | 0.00 | 86 | 1012.9 |
| 20260905061535 | 27 | 224 | 0.0 | 6.4 | 0.00 | 0.13 | 0.00 | 86 | 1013.1 |
| 20260905060034 | 27 | 210 | 4.8 | 8.0 | 0.00 | 0.13 | 0.00 | 85 | 1013.2 |
| 20260905054536 | 27 | 200 | 4.8 | 9.7 | 0.00 | 0.13 | 0.00 | 84 | 1013.1 |
| 20260905053031 | 27 | 240 | 1.6 | 8.0 | 0.00 | 0.13 | 0.00 | 84 | 1013.3 |
| 20260905051540 | 27 | 228 | 0.0 | 4.8 | 0.00 | 0.13 | 0.00 | 84 | 1013.5 |
| 20260905050026 | 27 | 231 | 1.6 | 8.0 | 0.00 | 0.13 | 0.00 | 84 | 1013.6 |
| 20260905044528 | 27 | 203 | 1.6 | 6.4 | 0.00 | 0.28 | 0.13 | 84 | 1013.6 |
| 20260905043022 | 27 | 186 | 3.2 | 11.3 | 0.00 | 0.28 | 0.13 | 85 | 1013.9 |
| 20260905041524 | 27 | 90 | 0.0 | 1.6 | 0.00 | 0.28 | 0.13 | 88 | 1014.0 |
| 20260905040021 | 27 | 186 | 0.0 | 0.0 | 0.00 | 0.28 | 0.13 | 87 | 1014.1 |
| 20260905034521 | 27 | 181 | 0.0 | 1.6 | 0.00 | 0.38 | 0.13 | 87 | 1014.1 |
| 20260905033048 | 27 | 212 | 0.0 | 6.4 | 0.00 | 0.38 | 0.13 | 87 | 1014.2 |
| 20260905031520 | 27 | 173 | 0.0 | 3.2 | 0.00 | 0.38 | 0.13 | 87 | 1014.4 |
| 20260905030019 | 27 | 189 | 0.0 | 0.0 | 0.00 | 0.38 | 0.13 | 88 | 1014.3 |
| 20260905024520 | 27 | 186 | 0.0 | 3.2 | 0.00 | 0.38 | 0.13 | 87 | 1014.6 |